コワル第1彗星

99P/Kowal 1 (2022)

English version
Home page
Updated on June 13, 2020

---------------------------------------------------------------------

・ プロフィール

・ 写真集

・ 軌道要素

Epoch 2022 Apr. 11.0 TT = JDT 2459680.5
T 2022 Apr. 12.64358 TT                                 Rudenko
q   4.7061085            (2000.0)            P               Q
n   0.06532599     Peri.  174.93289     -0.92014943     +0.38994182
a   6.1058392      Node    28.10171     -0.36186218     -0.81203720
e   0.2292446      Incl.    4.33964     -0.14960213     -0.43421303
P  15.1
From 568 observations 1991 Feb. 21-2020 Mar. 17, mean residual 0".7.

・ 星図

・ 光度変化

        m1 = 0.7 + 5 logΔ + 20.0 log r

---------------------------------------------------------------------

軌道要素はM.P.E.C. 2020-F67に掲載されたものです。
星図はステラナビゲータ Ver.10 (アストロアーツ) で作成したものです。
光度グラフはComet for Windowsで作成したものです。

---------------------------------------------------------------------

Copyright(C) Seiichi Yoshida (comet@aerith.net). All rights reserved.